IRIDIUM 33 DEB, 37550

Orbit data source: Space-Track

IRIDIUM 33 DEB, 37550 is space debris in LEO originally from a launch on Sun, 14 Sep 1997 UTC launched from the Tyuratam Missile And Space Complex (TTMTR). The debris from Iridium 33, an American commercial communications satellite, has been tracked extensively since its accidental collision with the defunct Russian satellite Cosmos 2251 in 2009. This event, occurring at high speed in low Earth orbit (LEO), generated thousands of pieces of space debris, significantly increasing the risk of further collisions. The Iridium 33 debris cloud has impacted space traffic management and orbital debris mitigation strategies, making it a subject of ongoing study in space situational awareness.

Loading next visibility...
Identifier
37550, 1997-051XK
Orbit
LEO
Country
Flag of USUS
Related business
Manufacturer
Unknown
Mission
Spacecraft
Bus & Motor
Unknown
Mass
Unknown
Launch date (UTC)
1997-09-14 (28 years ago)
Launch vehicle
Unknown
Launch site
Tyuratam Missile And Space Complex (TTMTR)
Object type
Payload
Rocket body
Debris
Shape & HBR
Unknown shape, 0.1 m
Radar Cross Section
Small (<0.1 m²)

Expand to show TLE details & history
Last TLE update: 3 days ago

TLE from 3 days ago
0 IRIDIUM 33 DEB
1 37550U 97051XK  25304.99959905  .00010160  00000-0  18378-2 0  9998
2 37550  86.3794  42.3541 0001878 221.5347 138.5725 14.66291241857216
Epoch: 2025-10-31T23:59Z
TLE epoch observation values (Epoch: 2025-10-31T23:59:25.357Z)
Latitude
0.00004°
Longitude
1.96247°
Altitude
677.022 km
Speed
7.518 km/s
True Right ascension
02h 49m 24s
True Declination
0° 00' 00"
Sunlit
Object was in full shadow at epoch
Visualization orbit readout
Latitude
Unknown
Longitude
Unknown
Altitude
Unknown
Speed
Unknown
Apparent Right ascension
Unknown
Apparent Declination
Unknown
Sunlit
N/A
Visualization observer readout
Local Sidereal Time
14:21:11
Azimuth
Unknown
Elevation
Unknown
Doppler factor
Unknown
Orbital elements
Apogee altitude
671.176 km
Perigee altitude
668.529 km
Semi-major axis
7,047.989 km
Eccentricity
0.00019
Inclination
86.3794°
RAAN
42.3541°
Arg. of periapsis
221.5347°
True anomaly
138.58674°
Mean anomaly
138.5725°
Eccentric anomaly
138.57962°
Mean motion
3.66813 °/min
Orbital period
98.14 mins
BSTAR
0.0018378
Loading maneuver chart data...
Computing Atmospheric mass density...

Documentation

Showing up to 5 results
|